This demonstration page uses our WeatherBlox Daily Observations layout. Learn more.

Left ArrowRight Arrow

39.51506, -84.39828

Hourly Observations for January 29, 2015

Temp ( °F °C ) Dew Point ( °F °C ) Humidity (%) Winds ( mph kmh ) Pressure ( in mb ) Visibility ( mi km ) Precip ( " mm )
12:15 am 00:15 Clear 34 1.2 20 -6.5 57 57 SSE 7 11 30.18 1022 10 16 0.00 0.00
12:35 am 00:35 Clear 34 1.2 20 -6.5 57 57 S 8 13 30.18 1022 10 16 0.00 0.00
12:55 am 00:55 Clear 34 1.2 21 -6.3 58 58 S 8 13 30.15 1021 10 16 0.00 0.00
1:15 am 01:15 Clear 34 1.2 21 -6 59 59 S 7 11 30.15 1021 10 16 0.00 0.00
1:35 am 01:35 Clear 34 1.2 21 -6.2 58 58 S 8 13 30.12 1020 10 16 0.00 0.00
1:55 am 01:55 Clear 34 1.2 21 -6.1 59 59 S 8 13 30.12 1020 10 16 0.00 0.00
2:15 am 02:15 Clear 34 1.2 21 -6.1 59 59 S 8 13 30.12 1020 10 16 0.00 0.00
2:35 am 02:35 Clear 34 1.2 20 -6.5 57 57 S 7 11 30.12 1020 10 16 0.00 0.00
2:55 am 02:55 Clear 34 1.2 21 -6.3 58 58 S 7 11 30.09 1019 10 16 0.00 0.00
3:15 am 03:15 Clear 34 1.2 20 -6.9 55 55 S 10 17 30.06 1018 10 16 0.00 0.00
3:35 am 03:35 Clear 34 1.2 20 -6.6 56 56 S 8 13 30.06 1018 10 16 0.00 0.00
3:55 am 03:55 Clear 35 1.4 20 -6.7 55 55 S 6 9 30.06 1018 10 16 0.00 0.00
4:15 am 04:15 Clear 37 2.6 21 -6.1 53 53 S 8 13 30.03 1017 10 16 0.00 0.00
4:35 am 04:35 Mostly Cloudy 37 2.6 20 -6.5 52 52 S 8 13 30.00 1016 10 16 0.00 0.00
4:55 am 04:55 Cloudy 37 2.6 20 -6.6 51 51 S 6 9 30.00 1016 10 16 0.00 0.00
5:15 am 05:15 Cloudy with Light Snow 39 4 22 -5.7 50 50 S 12 19 29.97 1015 10 16 0.00 0.00
5:35 am 05:35 Cloudy with Light Snow 37 2.7 23 -5.1 57 57 SSW 10 17 30.00 1016 7 11 0.00 0.00
5:55 am 05:55 Cloudy with Light Snow 37 2.6 25 -3.8 63 63 S 14 22 29.94 1014 7 11 0.00 0.00
6:15 am 06:15 Cloudy with Light Snow 37 2.6 28 -2.2 71 71 S 15 24 29.91 1013 5 8 0.00 0.00
6:35 am 06:35 Cloudy 37 2.6 28 -2.3 70 70 S 14 22 29.91 1013 10 16 0.00 0.00
6:55 am 06:55 Cloudy 37 2.6 28 -2.2 71 71 SSW 9 15 29.91 1013 10 16 0.00 0.00
7:15 am 07:15 Cloudy 37 2.7 28 -2.5 69 69 SSW 15 24 29.88 1012 10 16 0.00 0.00
7:35 am 07:35 Cloudy 37 2.7 28 -2.4 69 69 SSW 13 20 29.88 1012 10 16 0.00 0.00
7:55 am 07:55 Cloudy 37 2.6 28 -2 72 72 SSW 12 19 29.88 1012 10 16 0.00 0.00
8:15 am 08:15 Cloudy with Light Snow 37 2.6 29 -1.6 74 74 SSW 12 19 29.88 1012 7 11 0.00 0.00
8:35 am 08:35 Cloudy 37 2.6 30 -1.2 76 76 S 8 13 29.88 1012 10 16 0.00 0.00
8:55 am 08:55 Cloudy 37 2.6 30 -1.1 77 77 SSW 9 15 29.88 1012 10 16 0.00 0.00
9:15 am 09:15 Cloudy 38 3.2 31 -0.5 77 77 SSW 10 17 29.88 1012 10 16 0.00 0.00
9:35 am 09:35 Partly Cloudy 39 4 32 0 75 75 S 10 17 29.85 1011 10 16 0.00 0.00
9:55 am 09:55 Sunny 40 4.3 32 -0.1 73 73 S 9 15 29.85 1011 10 16 0.00 0.00
10:15 am 10:15 Partly Cloudy 40 4.7 32 0 72 72 SSW 12 19 29.85 1011 10 16 0.00 0.00
10:35 am 10:35 Sunny 42 5.7 33 0.5 70 70 SSW 9 15 29.85 1011 10 16 0.00 0.00
10:55 am 10:55 Mostly Cloudy 43 6.3 33 0.8 68 68 SSW 9 15 29.85 1011 10 16 0.00 0.00
11:15 am 11:15 Cloudy 49 9.6 36 2.4 61 61 SW 17 28 29.85 1011 10 16 0.00 0.00
11:35 am 11:35 Cloudy 49 9.6 37 2.8 63 63 SW 15 24 29.85 1011 10 16 0.00 0.00
11:55 am 11:55 Cloudy 49 9.6 37 2.7 62 62 SW 16 26 29.85 1011 10 16 0.00 0.00
12:15 pm 12:15 Cloudy 49 9.6 37 2.9 63 63 SW 14 22 29.85 1011 10 16 0.00 0.00
12:35 pm 12:35 Cloudy 49 9.6 38 3.2 65 65 SW 12 19 29.85 1011 10 16 0.00 0.00
12:55 pm 12:55 Cloudy 49 9.6 38 3.5 66 66 SW 9 15 29.83 1010 10 16 0.00 0.00
1:15 pm 13:15 Cloudy 49 9.6 38 3.1 64 64 WSW 13 20 29.83 1010 10 16 0.00 0.00
1:35 pm 13:35 Cloudy 49 9.6 37 3 64 64 W 17 28 29.85 1011 10 16 0.00 0.00
1:55 pm 13:55 Cloudy 47 8.2 37 2.6 68 68 W 15 24 29.85 1011 10 16 0.00 0.00
2:15 pm 14:15 Cloudy 42 5.7 33 0.7 71 71 W 18 30 29.88 1012 10 16 0.00 0.00
2:35 pm 14:35 Cloudy 40 4.7 33 0.5 74 74 W 22 35 29.88 1012 7 11 0.00 0.00
2:55 pm 14:55 Cloudy 40 4.7 33 0.6 75 75 W 21 33 29.91 1013 7 11 0.00 0.00
3:15 pm 15:15 Cloudy 39 4.1 32 0.2 76 76 W 22 35 29.91 1013 10 16 0.00 0.00
3:35 pm 15:35 Cloudy 39 4 33 0.4 78 78 W 16 26 29.94 1014 10 16 0.00 0.00
3:55 pm 15:55 Cloudy 39 4 32 0.2 77 77 W 15 24 29.94 1014 10 16 0.00 0.00
4:15 pm 16:15 Cloudy 39 4 32 0.1 76 76 W 12 19 29.97 1015 10 16 0.00 0.00
4:35 pm 16:35 Cloudy 39 4 33 0.6 79 79 W 16 26 29.97 1015 7 11 0.00 0.00
4:55 pm 16:55 Cloudy with Haze 37 2.7 32 0 83 83 W 10 17 30.03 1017 4 6 0.00 0.00
5:15 pm 17:15 Cloudy with Haze 37 2.6 32 0 83 83 WNW 10 17 30.03 1017 3 4 0.00 0.00
5:35 pm 17:35 Cloudy with Haze N/A N/A N/A undefined N/A N/A 3 5 0.00 0.00
5:55 pm 17:55 undefined N/A N/A N/A undefined N/A N/A N/A 0.00 0.00
6:15 pm 18:15 undefined N/A N/A N/A WNW 8 13 N/A N/A 0.00 0.00
6:35 pm 18:35 Cloudy N/A N/A N/A undefined N/A N/A N/A 0.00 0.00
6:55 pm 18:55 Cloudy 37 2.6 33 0.4 86 86 undefined N/A N/A 3 5 0.00 0.00
7:15 pm 19:15 Cloudy N/A N/A N/A undefined N/A N/A 4 6 0.00 0.00
7:35 pm 19:35 undefined N/A N/A N/A undefined N/A N/A N/A 0.00 0.00
7:55 pm 19:55 undefined N/A N/A N/A undefined N/A N/A N/A 0.00 0.00
8:15 pm 20:15 Cloudy N/A N/A N/A undefined N/A N/A 10 16 0.00 0.00
8:35 pm 20:35 Cloudy with Light Rain 36 2 30 -1.1 80 80 WNW 8 13 30.15 1021 10 16 0.00 0.00
8:55 pm 20:55 Cloudy with Light Rain 36 2 30 -1.2 80 80 WNW 12 19 30.18 1022 N/A 0.00 0.00
9:15 pm 21:15 Cloudy with Light Rain 35 1.8 30 -1 82 82 WNW 8 13 30.18 1022 7 11 0.00 0.00
9:35 pm 21:35 Cloudy 36 2 30 -1.2 80 80 WNW 12 19 30.18 1022 10 16 0.00 0.00
9:55 pm 21:55 Cloudy 36 2 30 -1.2 80 80 WNW 9 15 30.18 1022 10 16 0.00 0.00
10:15 pm 22:15 Cloudy 36 2 30 -1 81 81 WNW 12 19 30.21 1023 10 16 0.00 0.00
10:35 pm 22:35 Cloudy 36 2 30 -1.2 80 80 WNW 9 15 30.21 1023 7 11 0.00 0.00
10:55 pm 22:55 Cloudy with Drizzle 36 2 30 -1 81 81 WNW 7 11 30.21 1023 7 11 0.00 0.00
11:15 pm 23:15 Cloudy 35 1.6 30 -1.1 82 82 WNW 8 13 30.21 1023 7 11 0.00 0.00
11:35 pm 23:35 Cloudy 34 1.3 30 -1.2 84 84 WNW 9 15 30.21 1023 7 11 0.00 0.00
11:55 pm 23:55 Cloudy with Light Snow 34 1.3 30 -1.2 84 84 WNW 8 13 30.24 1024 7 11 0.00 0.00

Powered by AerisWeather